STARLINK-31487, 59297

Orbit data source: Space-Track

STARLINK-31487, 59297 is a payload satellite owned by SpaceX/Seattle (US) in LEO that was launched on Sun, 24 Mar 2024 UTC via an FALCON 9 launch vehicle from the Air Force Eastern Test Range (AFETR). Payload-class satellites include a variety of spacecraft equipped with specific instruments for various scientific and technological missions. These include communications satellites like Starlink; space stations such as the ISS; scientific satellites like the Hubble; Earth observation satellites from companies like Planet Labs, Umbra, and HawkEye 360; GPS; miniature CubeSats for education and research; and military/defense satellites.

Loading next visibility...
Identifier
59297, 2024-056B
Orbit
LEO
Country
Flag of USUS
Related business
Manufacturer
SpaceX/Seattle
Mission
Operational Commercial Communications
Bus & Motor
STARLINK V2M, Unknown motor
Mass
730 kg wet, ~700 kg dry
Launch date (UTC)
2024-03-24 (2 years ago)
Launch vehicle
FALCON 9
Launch site
Air Force Eastern Test Range (AFETR)
Object type
Payload
Rocket body
Debris
Shape & HBR
Box + 2 Pan, 17.7 m
Radar Cross Section
33.884 m², Large (>1 m²)

Expand to show TLE details & history
Last TLE update: 3 days ago

TLE from 3 days ago
0 STARLINK-31487
1 59297U 24056B   26169.98498268  .00000524  00000-0  28547-4 0  9998
2 59297  43.0018  18.8621 0001191 267.8238  92.2477 15.27581257126760
Epoch: 2026-06-18T23:38Z
TLE epoch observation values (Epoch: 2026-06-18T23:38:22.503Z)
Latitude
-0.00004°
Longitude
117.04783°
Altitude
482.853 km
Speed
7.626 km/s
True Right ascension
01h 15m 26s
True Declination
0° 00' 00"
Sunlit
Object was in daylight at epoch
Visualization orbit readout
Latitude
Unknown
Longitude
Unknown
Altitude
Unknown
Speed
Unknown
Apparent Right ascension
Unknown
Apparent Declination
Unknown
Sunlit
N/A
Visualization observer readout
Local Sidereal Time
21:32:27
Azimuth
Unknown
Elevation
Unknown
Doppler factor
Unknown
Orbital elements
Apogee altitude
485.808 km
Perigee altitude
484.173 km
Semi-major axis
6,863.127 km
Eccentricity
0.00012
Inclination
43.0018°
RAAN
18.8621°
Arg. of periapsis
267.8238°
True anomaly
92.26134°
Mean anomaly
92.2477°
Eccentric anomaly
92.25452°
Mean motion
3.81733 °/min
Orbital period
94.31 mins
BSTAR
0.000028547
Loading maneuver chart data...
Computing Atmospheric mass density...
Loading historical data...
Loading historical data...
Loading historical data...
Loading historical data...
Loading historical data...
Loading historical data...
Loading historical data...

Documentation

Showing up to 5 results
|